Location: Casa Meletta Davanti
(45.9000°N, 11.5833°E)
Time: 07:13:06
(UTC+00:00)

Daily predictions for brighter satellites

Satellite Brightness Start Highest point End
(mag) Time Altitude Azimuth Time Altitude Azimuth Time Altitude Azimuth
DMSP B5D2-2 4.1 19:00:41 10° NNE 19:05:54 63° ESE 19:11:05 10° S
OE (NEXTSAT) 4.4 19:05:00 10° W 19:08:30 77° SSW 19:11:59 10° ESE
ATLAS 5 CENTAUR R/B 2.5 19:02:56 10° NW 19:08:35 73° NE 19:15:13 10° SE
SL-4 R/B 3.1 19:06:03 10° S 19:09:13 22° SE 19:12:13 10° E
SL-08 RB Rocket 4.4 19:08:40 10° S 19:13:12 59° W 19:17:49 10° NNW
MetOp-A 4.2 19:09:35 10° SSE 19:14:57 89° WSW 19:20:21 10° NNW
Cosmos 1697 Rocket 3.4 19:10:46 10° NNW 19:16:05 41° NE 19:21:19 10° SE
Cosmos 1833 Rocket 3.3 19:11:15 10° S 19:16:16 35° ESE 19:21:19 10° NE
Cosmos 2228 Rocket 3.0 19:13:21 10° N 19:17:49 80° E 19:22:12 10° SSE
Cosmos 389 Rocket 2.7 19:17:28 10° N 19:20:48 48° ENE 19:24:09 10° SSE
SPOT 3 Rocket 3.6 19:15:58 10° SSE 19:21:10 74° ENE 19:26:22 10° N
Cosmos 1633 Rocket 4.5 19:18:19 10° SE 19:21:37 21° E 19:24:55 10° NE
Cosmos 1812 3.1 19:19:00 10° N 19:22:43 45° ENE 19:26:24 10° SSE
Cosmos 1727 Rocket 4.1 19:16:31 10° N 19:22:55 86° E 19:29:16 10° S
Cosmos 2251 Rocket 3.7 19:17:56 10° SSW 19:23:11 78° WNW 19:28:31 10° NNE
Cosmos 1656 3.6 19:22:18 10° NNW 19:27:48 83° ENE 19:33:20 10° SSE
Cosmos 1633 4.5 19:27:36 10° SW 19:30:49 33° WNW 19:34:03 10° N
IRIDIUM 104 4.3 19:26:11 10° S 19:31:21 69° E 19:36:32 10° N
Cosmos 1707 Rocket 4.1 19:28:03 10° N 19:32:11 40° ENE 19:35:44 13° SE
Resurs 01 Rocket 1.7 19:27:55 10° SSE 19:32:17 65° ENE 19:36:41 10° N
Cosmos 220 Rocket 4.0 19:28:09 10° NNW 19:32:20 62° ENE 19:36:05 13° SSE
Cosmos 972 Rocket 4.1 19:29:12 10° NNW 19:34:12 70° WSW 19:39:02 10° S
FALCON 9 DEB 4.3 19:34:32 10° S 19:37:24 24° SE 19:40:17 10° E
Cosmos 1441 Rocket 3.1 19:34:12 10° S 19:37:58 62° E 19:41:42 10° NNE
IRIDIUM 114 4.3 19:35:16 10° S 19:40:29 82° E 19:45:44 10° N
Cosmos 614 Rocket 3.9 19:36:33 10° S 19:41:39 68° ESE 19:46:50 10° NNE
NOSS 3-2 (A) 4.4 19:38:23 10° SSE 19:42:37 22° ESE 19:47:12 10° ENE
IGS 5A 4.2 19:41:07 16° SE 19:43:59 37° ENE 19:47:50 10° N
USA 267 3.2 19:41:28 10° NE 19:48:02 74° SE 19:54:34 10° SW
IRIDIUM 103 4.4 19:44:24 10° S 19:49:37 83° W 19:54:53 10° N
GP-B 3.9 19:46:37 10° NNE 19:50:41 34° E 19:53:14 19° SE
Cosmos 1821 Rocket 3.9 19:45:43 10° S 19:51:49 81° E 19:58:04 10° N
COSMOS 2406 3.3 19:48:20 10° SSW 19:54:06 85° WNW 19:59:53 10° NNE
Shenzhou-11 Module 2.2 19:53:01 10° WSW 19:55:12 33° S 19:55:30 31° S
Cosmos 921 Rocket 4.5 19:52:46 10° N 19:56:07 22° ENE 19:58:03 16° E
CZ-2C R/B 4.2 19:51:55 10° N 19:56:32 65° WNW 20:01:01 10° SSW
SL-16 R/B 4.0 19:54:30 10° N 19:58:27 19° NE 20:02:24 10° E
Intercosmos 25 3.4 19:54:07 10° NNW 19:58:38 75° W 20:01:26 14° S
Cosmos 1862 Rocket 4.3 19:54:30 10° N 19:58:43 38° ENE 20:01:01 22° SE
ERS-1 Rocket 3.9 19:56:09 18° ESE 19:59:04 33° ENE 20:03:32 10° N
Lacrosse 5 3.5 19:57:00 10° NW 20:01:25 29° NNE 20:05:50 10° ENE
Cosmos 1862 4.3 19:59:21 10° SSW 20:03:16 49° WNW 20:07:14 10° N
Cosmos 2369 3.7 19:58:16 10° NNW 20:04:02 82° ENE 20:08:05 20° SSE
Sich 1 3.2 19:59:41 10° S 20:04:07 81° W 20:08:36 10° N
Cosmos 1818 3.7 20:03:17 10° NW 20:08:44 73° WSW 20:12:24 21° SSE
BREEZE-M DEB (TANK) 3.1 20:06:03 10° WNW 20:08:45 37° N 20:09:54 18° NE
Cosmos 2082 Rocket 2.3 20:03:41 10° S 20:09:13 55° ESE 20:14:46 10° NE
Cosmos 1954 Rocket 4.4 20:06:50 14° S 20:11:01 43° ESE 20:16:03 10° NNE
Cosmos 2278 3.8 20:07:36 10° NNW 20:13:19 67° ENE 20:16:44 25° SE
Cosmos 2123 Rocket 4.0 20:07:15 10° N 20:13:28 74° E 20:18:06 19° SSE
Cosmos 1535 Rocket 4.4 20:08:51 10° S 20:14:57 70° E 20:21:02 10° NNE
Spot 2 Rocket 3.5 20:11:24 20° SSE 20:14:57 80° ENE 20:20:05 10° NNW
Meteor 2-20 4.4 20:09:03 10° N 20:15:15 87° ENE 20:20:07 17° S
Cosmos 2322 Rocket 3.9 20:16:41 10° N 20:21:03 22° NE 20:24:25 14° E
Meteor 1-4 Rocket 2.3 20:17:38 10° N 20:21:07 88° E 20:22:26 36° SSE
Cosmos 1184 Rocket 2.9 20:21:02 43° SE 20:21:42 53° E 20:24:57 10° NNE
CARTOSAT-1 4.0 20:20:05 30° SE 20:21:49 47° ENE 20:25:59 10° N
Cosmos 1190 Rocket 4.0 20:16:43 10° SSW 20:21:59 89° ESE 20:27:20 10° NNE
Terra 2.8 20:21:08 25° ESE 20:23:00 34° ENE 20:27:16 10° N
USA 234 3.3 20:18:46 22° ESE 20:23:16 82° NE 20:29:51 10° NW
Cosmos 407 Rocket 3.8 20:19:38 10° SSW 20:24:58 72° WNW 20:30:17 10° NNE
Cosmos 1605 Rocket 4.0 20:21:08 20° SSE 20:25:17 57° E 20:31:14 10° NNE
Cosmos 1933 Rocket 4.2 20:24:16 31° ESE 20:25:19 36° E 20:29:23 10° NNE
Cosmos 1666 Rocket 3.7 20:21:27 10° SSW 20:25:44 72° W 20:30:04 10° N
Meteor 1-20 Rocket 4.4 20:23:25 22° SSE 20:27:07 56° E 20:32:50 10° NNE
Cosmos 1238 Rocket 2.9 20:28:02 35° ENE 20:28:02 35° ENE 20:30:26 10° NNE
Okean 1 4.1 20:26:55 10° N 20:30:41 36° ENE 20:31:26 33° E
Meteor 1-27 Rocket 4.4 20:26:04 10° NNW 20:31:52 57° W 20:36:53 14° S
Cosmos 1602 4.4 20:31:37 35° ESE 20:31:54 36° E 20:35:31 10° NNE
Cosmos 2360 Rocket 4.2 20:31:23 10° N 20:35:01 17° NE 20:38:35 10° E
Cosmos 1437 Rocket 3.9 20:31:53 10° NNE 20:35:09 26° ENE 20:35:27 26° E
CZ-4B DEB 4.3 20:35:36 57° SE 20:36:07 72° ENE 20:39:28 10° N
SPOT 5 2.7 20:35:54 38° SE 20:37:17 58° ENE 20:41:34 10° N
BREEZE-M DEB (TANK) 4.3 20:37:01 10° WSW 20:37:57 11° WSW 20:38:47 10° SW
USA 238 DEB 3.7 20:31:34 10° SSW 20:37:58 55° ESE 20:44:38 10° NE
USA 238 3.7 20:31:42 10° SSW 20:38:05 54° ESE 20:44:44 10° NE
SPOT 1/Viking Rocket 3.7 20:39:53 26° S 20:42:51 72° WSW 20:48:06 10° NNW
Cosmos 1980 Rocket 2.2 20:38:47 10° NNW 20:44:29 82° WSW 20:47:05 34° SSE
Cosmos 1703 Rocket 4.0 20:42:15 10° N 20:46:25 42° ENE 20:47:05 39° E
Cosmos 2242 Rocket 3.7 20:42:04 10° N 20:46:28 58° ENE 20:47:29 46° SE
SL-4 R/B 1.8 20:44:38 10° WSW 20:48:33 77° NNW 20:51:35 14° ENE
Cosmos 1763 Rocket 4.1 20:44:17 10° N 20:49:23 45° ENE 20:51:08 33° ESE
Cosmos 405 Rocket 2.6 20:49:22 60° ESE 20:49:28 60° E 20:53:08 10° NNE
BREEZE-M DEB (TANK) 3.4 20:46:45 10° W 20:49:46 58° N 20:58:27 10° E
Genesis I 3.1 20:46:14 10° NW 20:50:08 82° SW 20:50:44 62° SSE
Cosmos 1140 Rocket 4.1 20:45:32 10° SW 20:50:41 56° WNW 20:55:52 10° NNE
ATLAS 5 CENTAUR R/B 4.0 20:48:15 10° WNW 20:53:02 25° WSW 20:57:17 14° SSW
USA 32 4.2 20:53:02 22° SSW 20:56:23 71° W 21:01:38 10° N
Cosmos 1633 Rocket 4.3 20:55:05 11° SW 20:59:08 39° WNW 21:03:18 10° N
Cosmos 1697 Rocket 3.9 20:54:56 10° NW 20:59:57 34° WSW 21:03:04 20° SSW
Cosmos 1833 Rocket 4.0 20:54:52 10° SW 21:00:07 40° NW 21:05:25 10° NNE
Cosmos 1153 Rocket 4.4 21:03:26 35° S 21:06:08 75° E 21:12:18 10° NNE
CENTAUR R/B 2.6 21:04:45 39° SSE 21:06:28 50° ESE 21:13:05 10° NE
Cosmos 1867 3.7 21:01:06 10° SW 21:06:31 73° NW 21:12:01 10° NNE
Meteor 1-18 Rocket 4.1 21:02:20 10° N 21:07:58 89° ENE 21:09:50 44° S
Okean 1-7 3.0 21:03:49 10° N 21:08:09 64° E 21:08:30 61° ESE
Resurs 01 Rocket 4.2 21:06:56 10° WSW 21:09:13 14° W 21:11:30 10° WNW
NOSS 3-3 (A) 4.5 21:02:59 10° NW 21:10:31 89° NE 21:14:20 37° SE
NOSS 3-3 (C) 4.5 21:03:05 10° NW 21:10:37 89° NE 21:14:26 36° SE
FALCON 9 DEB 3.7 21:10:46 10° WSW 21:14:14 59° NNW 21:15:22 37° NE
Cosmos 1802 Rocket 4.5 21:13:52 38° ESE 21:15:14 43° E 21:21:12 10° NNE
Cosmos 1850 Rocket 4.0 21:14:19 53° SSE 21:15:16 63° ESE 21:20:30 10° NNE
Meteor 2-4 Rocket 3.8 21:12:02 10° N 21:17:41 61° ENE 21:18:53 49° SE
Cosmos 1515 3.6 21:14:40 10° N 21:18:23 82° N 21:18:23 82° N
Cosmos 44 4.3 21:17:13 10° NNW 21:21:48 39° NE 21:23:09 32° E
ATLAS 5 CENTAUR R/B 3.1 21:19:22 10° NNW 21:22:03 36° NE 21:23:25 30° E
USA 267 4.2 21:24:37 10° NE 21:30:51 48° NNW 21:37:04 10° W
NOSS 3-2 (A) 3.6 21:26:56 10° SW 21:32:39 71° NW 21:39:13 10° NE
Cosmos 921 Rocket 3.9 21:30:37 10° NW 21:34:31 37° WSW 21:34:50 36° WSW
ERS-1 Rocket 4.2 21:36:08 27° SW 21:37:49 34° W 21:42:22 10° NNW
NOSS 3-2 (C) 3.2 21:35:51 35° SSW 21:38:28 85° SE 21:45:01 10° NE
Cosmos 841 Rocket 3.5 21:36:14 10° NNW 21:41:27 64° ENE 21:42:00 60° E
Cosmos 540 Rocket 3.5 21:37:44 10° NNW 21:42:53 63° ENE 21:43:22 60° E
SL-16 R/B 2.1 21:37:40 10° NNW 21:43:23 89° ENE 21:44:17 65° SSE
Cosmos 468 Rocket 4.3 21:39:47 10° NNW 21:45:00 57° WSW 21:45:45 52° SW
Lacrosse 5 1.8 21:39:56 10° NW 21:45:02 79° NE 21:45:31 71° E
Cosmos 1741 Rocket 4.1 21:48:22 50° SW 21:49:43 72° WNW 21:55:00 10° NNE
Cosmos 1570 Rocket 3.9 21:47:24 10° NNW 21:52:45 82° ENE 21:53:10 74° SE
Cosmos 2082 Rocket 4.1 21:48:47 10° WSW 21:53:38 28° NW 21:58:29 10° N
Tsikada Rocket 4.3 21:47:35 10° N 21:53:50 53° ENE 21:54:55 48° ESE
Cosmos 2219 Rocket 3.9 21:49:46 10° N 21:54:17 23° NE 21:56:38 18° E
Cosmos 2208 Rocket 3.9 21:49:33 10° NNW 21:54:51 72° ENE 21:55:11 69° E
Cosmos 1814 Rocket 4.0 21:50:01 10° NNW 21:55:14 69° ENE 21:55:32 67° E
Cosmos 2237 4.3 21:54:06 10° NNW 21:59:47 62° ENE 22:00:34 56° E
Terra 3.1 22:00:02 29° WSW 22:00:44 30° W 22:04:56 10° NW
Cosmos 2322 Rocket 2.1 22:00:02 10° NNW 22:05:44 76° WSW 22:06:13 71° SSW
USA 234 4.1 22:06:06 32° SW 22:06:43 33° SW 22:12:29 10° WNW
Cosmos 2100 Rocket 4.3 22:05:36 42° SW 22:07:30 61° WNW 22:13:36 10° N
Meteor 1-11 Rocket 3.5 22:09:09 76° SE 22:09:29 79° E 22:15:14 10° NNE
Cosmos 1869 Rocket 4.5 22:13:01 41° W 22:13:13 42° WNW 22:17:28 10° N
Cosmos 1242 Rocket 4.3 22:10:03 10° N 22:12:07 30° NNE 22:12:07 30° NNE
Cosmos 2360 Rocket 2.1 22:14:17 10° NNW 22:20:00 79° ENE 22:20:19 75° ESE
Geosat 4.2 22:20:48 57° WSW 22:20:48 57° WSW 22:25:33 10° NW
COSMOS 2428 4.0 22:15:48 10° N 22:20:53 31° NE 22:22:37 26° E
ATLAS 3B R/B 2.5 22:21:12 64° SE 22:21:28 65° ESE 22:28:02 10° NE
Iridium 4 Rocket 4.1 22:21:45 37° W 22:21:45 37° W 22:25:39 10° NNW
ALOS 2 3.2 22:27:44 54° NNE 22:27:44 54° NNE 22:31:20 10° N
Cosmos 1980 Rocket 4.4 22:25:21 10° WNW 22:27:31 12° W 22:28:51 11° WSW
Cosmos 1725 Rocket 3.9 22:27:19 65° SSW 22:28:18 80° W 22:34:41 10° N
SL-4 R/B 3.7 22:25:04 10° WNW 22:27:13 25° NW 22:27:13 25° NW
Nimbus 7 Rocket 4.3 22:26:15 10° NNE 22:32:08 70° ESE 22:32:15 69° ESE
SL-08 R/B 4.4 22:32:18 62° SW 22:33:11 72° W 22:39:17 10° N
Cosmos 1536 4.0 22:34:39 42° NNW 22:34:39 42° NNW 22:37:27 10° N
Cosmos 1674 Rocket 4.2 22:29:53 10° N 22:33:13 52° N 22:33:13 52° N
Cosmos 1666 4.3 22:37:32 32° NNW 22:37:32 32° NNW 22:39:55 10° N
Cosmos 1743 4.5 22:38:17 28° NNE 22:38:17 28° NNE 22:40:21 10° NNE
Cosmos 2333 Rocket 2.7 22:34:53 10° NNW 22:40:30 50° ENE 22:41:19 46° E
Cosmos 2016 Rocket 4.5 22:39:51 45° WSW 22:41:19 54° WNW 22:47:35 10° N
Cosmos 1271 Rocket 4.4 22:38:35 10° N 22:40:47 31° NNE 22:40:47 31° NNE
Cosmos 2061 Rocket 4.5 22:41:23 45° WSW 22:42:44 53° WNW 22:48:48 10° N
Lacrosse 4 Rocket 3.1 22:45:23 27° NE 22:45:23 27° NE 22:47:25 10° NE
Cosmos 2237 Rocket 4.2 22:40:08 10° N 22:44:23 21° NE 22:47:32 14° E
Cosmos 1733 Rocket 3.9 22:50:59 45° NW 22:50:59 45° NW 22:54:33 10° N
Meteor 2-11 Rocket 4.3 22:51:23 71° ESE 22:51:35 72° E 22:57:39 10° NNE
Cosmos 1066 Rocket 4.4 22:48:08 10° NNW 22:53:47 62° W 22:53:47 62° W
Meteor 1-23 Rocket 4.4 22:49:50 10° NNW 22:55:36 63° W 22:55:43 63° WSW
Thor Agena Rocket 4.2 22:51:44 10° N 22:56:33 45° WNW 22:57:00 44° W
Cosmos 44 Rocket 4.4 22:52:03 10° NNW 22:56:43 38° NE 22:57:31 36° ENE
CENTAUR R/B 3.7 22:51:50 12° WSW 22:57:18 42° NW 23:04:12 10° NNE
Cosmos 968 Rocket 3.8 22:59:01 55° NE 22:59:01 55° NE 23:03:13 10° NNE
Cosmos 2233 Rocket 4.3 23:14:31 51° WSW 23:15:23 56° WNW 23:21:38 10° N
Cosmos 1464 Rocket 4.1 23:15:36 61° ESE 23:15:56 62° E 23:22:03 10° NNE
Cosmos 1908 Rocket 4.4 23:18:33 48° NNW 23:18:33 48° NNW 23:21:49 10° N
Cosmos 2227 Rocket 4.1 23:22:43 18° E 23:22:43 18° E 23:25:56 10° ENE
Helios 1B rocket 4.3 23:19:37 10° NNE 23:21:48 24° ENE 23:21:48 24° ENE
Meteor 1-21 4.2 23:19:22 10° N 23:25:12 73° ENE 23:25:21 73° E
SL-16 R/B 4.3 23:23:47 10° WNW 23:26:08 14° W 23:26:08 14° W
Lacrosse 5 4.1 23:23:42 10° WNW 23:24:41 14° W 23:24:41 14° W
Cosmos 2322 4.1 23:24:39 10° NNW 23:29:31 53° W 23:29:31 53° W
Nadezhda 4 Rocket 4.1 23:31:01 10° N 23:37:18 66° E 23:38:04 60° ESE
Cosmos 2219 Rocket 2.3 23:33:07 10° NNW 23:38:19 66° WNW 23:38:19 66° WNW
Cosmos 1513 Rocket 4.4 23:42:38 74° SW 23:43:13 83° W 23:49:41 10° N
Cosmos 1975 Rocket 3.9 23:39:04 10° NNW 23:42:25 48° NNW 23:42:25 48° NNW
Cosmos 2034 Rocket 3.9 23:43:53 69° SE 23:44:23 72° E 23:50:41 10° NNE
Okean 2 Rocket 4.1 23:45:22 42° NE 23:45:22 42° NE 23:48:47 10° NNE
Cosmos 1503 Rocket 4.1 23:45:55 73° NW 23:45:55 73° NW 23:51:09 10° NNE
Cosmos 1072 Rocket 4.3 23:46:51 71° WSW 23:47:14 74° W 23:53:22 10° N
SL-16 R/B 3.9 23:46:15 21° ESE 23:49:30 34° ENE 23:55:01 10° N
Cosmos 1092 Rocket 4.4 23:45:22 10° N 23:51:29 53° ENE 23:52:45 46° ESE
GEOS 3 Rocket 4.5 23:48:54 10° NE 23:53:18 40° E 23:53:18 40° E
CZ-2D R/B 3.7 23:49:54 10° NE 23:54:15 23° E 23:54:54 23° ESE
Sich 1 Rocket 4.2 23:55:31 52° N 23:55:31 52° N 23:58:54 10° N
SL-16 R/B 4.1 23:49:55 10° N 23:54:42 26° NE 23:59:26 10° ESE
